EVA006 RCTP-KLAX

Flight info

Callsign EVA006
Flight time N/A
Altitude 31000
Route MOLKA1C MOLKA M750 MUKEP Y891 OVSUN/N0503F320 Y893 IGMIS/N0503F310 Y57 POROT Y809 IDLAN Y812 ADNAP/N0498F330 OTR5 KALNA DCT 42N160E 43N170E 41N180E 39N170W/N0483F350 38N160W 37N150W 36N140W 35N130W/N0489F370 DCT AUDIA DCT SNAXX RYDRR2
Aircraft B77W/H-SDE1E2E3FGHIJ2J3J4J5M1RWXY/LB1D1

Departure

Time N/A
Airport Taiwan Taoyuan International Airport (RCTP)

Arrival

Time 2026-05-04 22:32
Airport Los Angeles International Airport (KLAX)
Time Latitude Longitude Altitude Speed Heading
2026-05-04 20:57 35.16400 -131.19116 37121 ft 497 kts 95°
2026-05-04 20:57 35.15847 -131.14954 37123 ft 495 kts 95°
2026-05-04 20:58 35.14741 -131.06664 37124 ft 493 kts 95°
2026-05-04 20:58 35.13644 -130.98477 37116 ft 491 kts 95°
2026-05-04 20:59 35.12536 -130.90244 37142 ft 491 kts 95°
2026-05-04 20:59 35.11420 -130.81992 37123 ft 492 kts 95°
2026-05-04 21:00 35.10296 -130.73735 37119 ft 493 kts 95°
2026-05-04 21:00 35.09163 -130.65455 37122 ft 494 kts 95°
2026-05-04 21:01 35.08024 -130.57171 37118 ft 495 kts 95°
2026-05-04 21:01 35.06878 -130.48886 37115 ft 496 kts 95°
2026-05-04 21:02 35.05723 -130.40575 37117 ft 496 kts 95°
2026-05-04 21:02 35.04563 -130.32273 37103 ft 496 kts 95°
2026-05-04 21:03 35.03404 -130.24018 37123 ft 495 kts 95°
2026-05-04 21:03 35.02234 -130.15725 37107 ft 495 kts 95°
2026-05-04 21:04 35.01060 -130.07443 37108 ft 494 kts 95°
2026-05-04 21:04 34.99913 -129.99182 37104 ft 493 kts 93°
2026-05-04 21:05 34.99202 -129.90901 37103 ft 490 kts 91°
2026-05-04 21:05 34.98572 -129.82624 37103 ft 490 kts 91°
2026-05-04 21:06 34.97924 -129.74350 37108 ft 490 kts 91°
2026-05-04 21:06 34.97257 -129.66131 37094 ft 490 kts 91°
2026-05-04 21:07 34.96570 -129.57851 37111 ft 490 kts 91°
2026-05-04 21:07 34.95878 -129.49583 37093 ft 490 kts 91°
2026-05-04 21:08 34.95182 -129.41316 37092 ft 490 kts 91°
2026-05-04 21:08 34.94481 -129.33059 37109 ft 490 kts 91°
2026-05-04 21:09 34.93773 -129.24784 37091 ft 490 kts 91°
2026-05-04 21:09 34.93061 -129.16525 37089 ft 490 kts 91°
2026-05-04 21:10 34.92344 -129.08275 37094 ft 489 kts 92°
2026-05-04 21:10 34.91621 -129.00029 37086 ft 489 kts 92°
2026-05-04 21:11 34.90893 -128.91781 37084 ft 489 kts 92°
2026-05-04 21:11 34.90164 -128.83593 37089 ft 489 kts 92°
2026-05-04 21:12 34.89427 -128.75375 37083 ft 488 kts 92°
2026-05-04 21:12 34.88683 -128.67151 37080 ft 488 kts 92°
2026-05-04 21:13 34.87935 -128.58924 37085 ft 488 kts 92°
2026-05-04 21:13 34.87179 -128.50690 37081 ft 489 kts 92°
2026-05-04 21:14 34.86423 -128.42503 37080 ft 489 kts 92°
2026-05-04 21:14 34.85655 -128.34263 37076 ft 490 kts 92°
2026-05-04 21:15 34.84881 -128.26008 37076 ft 490 kts 92°
2026-05-04 21:15 34.84099 -128.17732 37094 ft 491 kts 93°
2026-05-04 21:16 34.83315 -128.09503 37085 ft 493 kts 93°
2026-05-04 21:16 34.82520 -128.01217 37081 ft 493 kts 93°
2026-05-04 21:17 34.81719 -127.92924 37099 ft 494 kts 93°
2026-05-04 21:17 34.80912 -127.84625 37074 ft 494 kts 93°
2026-05-04 21:18 34.80098 -127.76325 37078 ft 494 kts 93°
2026-05-04 21:18 34.79279 -127.68019 37081 ft 495 kts 94°
2026-05-04 21:19 34.78452 -127.59697 37078 ft 496 kts 94°
2026-05-04 21:19 34.77617 -127.51358 37076 ft 496 kts 94°
2026-05-04 21:20 34.76777 -127.43023 37081 ft 497 kts 94°
2026-05-04 21:20 34.75935 -127.34728 37063 ft 497 kts 94°
2026-05-04 21:21 34.75081 -127.26375 37081 ft 497 kts 94°
2026-05-04 21:21 34.74220 -127.18006 37087 ft 498 kts 95°
2026-05-04 21:22 34.73353 -127.09636 37081 ft 499 kts 95°
2026-05-04 21:22 34.72486 -127.01328 37078 ft 499 kts 95°
2026-05-04 21:23 34.71607 -126.92962 37085 ft 499 kts 95°
2026-05-04 21:23 34.70722 -126.84590 37080 ft 500 kts 95°
2026-05-04 21:24 34.69830 -126.76204 37087 ft 500 kts 95°
2026-05-04 21:24 34.69678 -126.74782 37083 ft 500 kts 95°
2026-05-04 21:25 34.67991 -126.59098 37082 ft 502 kts 96°
2026-05-04 21:25 34.67084 -126.50744 37082 ft 502 kts 96°
2026-05-04 21:26 34.66165 -126.42327 37086 ft 503 kts 96°
2026-05-04 21:26 34.65238 -126.33907 37084 ft 503 kts 97°
2026-05-04 21:27 34.64461 -126.26890 37082 ft 503 kts 97°
2026-05-04 21:27 34.63524 -126.18469 37085 ft 503 kts 97°
2026-05-04 21:28 34.62582 -126.10061 37080 ft 502 kts 97°
2026-05-04 21:28 34.61634 -126.01654 37082 ft 502 kts 97°
2026-05-04 21:29 34.60681 -125.93258 37081 ft 502 kts 97°
2026-05-04 21:29 34.59727 -125.84896 37086 ft 503 kts 97°
2026-05-04 21:30 34.58762 -125.76497 37087 ft 503 kts 97°
2026-05-04 21:30 34.57623 -125.66648 37087 ft 504 kts 98°
2026-05-04 21:31 34.56315 -125.55419 37085 ft 505 kts 98°
2026-05-04 21:32 34.55329 -125.47019 37088 ft 506 kts 98°
2026-05-04 21:32 34.54329 -125.38553 37091 ft 508 kts 98°
2026-05-04 21:33 34.53321 -125.30067 37085 ft 509 kts 98°
2026-05-04 21:33 34.52304 -125.21555 37092 ft 510 kts 99°
2026-05-04 21:34 34.51280 -125.13044 37090 ft 510 kts 99°
2026-05-04 21:34 34.50249 -125.04520 37075 ft 511 kts 99°
2026-05-04 21:35 34.49213 -124.96004 37085 ft 511 kts 99°
2026-05-04 21:35 34.48170 -124.87483 37086 ft 511 kts 99°
2026-05-04 21:36 34.47124 -124.78995 37084 ft 512 kts 99°
2026-05-04 21:36 34.46067 -124.70455 37085 ft 512 kts 100°
2026-05-04 21:37 34.45005 -124.61932 37085 ft 512 kts 100°
2026-05-04 21:37 34.43935 -124.53395 37079 ft 513 kts 100°
2026-05-04 21:38 34.42858 -124.44848 37091 ft 514 kts 101°
2026-05-04 21:38 34.41771 -124.36277 37088 ft 515 kts 101°
2026-05-04 21:39 34.40682 -124.27740 37085 ft 516 kts 101°
2026-05-04 21:39 34.39583 -124.19167 37078 ft 516 kts 101°
2026-05-04 21:40 34.38475 -124.10574 37071 ft 516 kts 101°
2026-05-04 21:40 34.37359 -124.01967 37085 ft 517 kts 101°
2026-05-04 21:41 34.36244 -123.93419 37083 ft 517 kts 102°
2026-05-04 21:41 34.35115 -123.84814 37086 ft 518 kts 102°
2026-05-04 21:42 34.33979 -123.76203 37084 ft 518 kts 102°
2026-05-04 21:42 34.32837 -123.67590 37080 ft 518 kts 102°
2026-05-04 21:43 34.31688 -123.58968 37072 ft 519 kts 103°
2026-05-04 21:43 34.30533 -123.50356 37085 ft 519 kts 103°
2026-05-04 21:44 34.29369 -123.41730 37085 ft 519 kts 103°
2026-05-04 21:44 34.28207 -123.33156 37082 ft 520 kts 103°
2026-05-04 21:45 34.27032 -123.24533 37083 ft 520 kts 103°
2026-05-04 21:45 34.25850 -123.15900 37085 ft 520 kts 103°
2026-05-04 21:46 34.24762 -123.07250 37095 ft 523 kts 99°
2026-05-04 21:46 34.24344 -122.98441 37095 ft 526 kts 96°
2026-05-04 21:47 34.24018 -122.89644 37088 ft 527 kts 96°
2026-05-04 21:47 34.23656 -122.80782 37086 ft 528 kts 97°
2026-05-04 21:48 34.23256 -122.71920 37085 ft 529 kts 97°
2026-05-04 21:48 34.22840 -122.63035 37081 ft 530 kts 97°
2026-05-04 21:49 34.22418 -122.54134 37069 ft 530 kts 98°
2026-05-04 21:49 34.21993 -122.45244 37068 ft 530 kts 98°
2026-05-04 21:50 34.21561 -122.36330 37077 ft 531 kts 98°
2026-05-04 21:50 34.21125 -122.27487 37076 ft 531 kts 99°
2026-05-04 21:51 34.20680 -122.18573 37082 ft 532 kts 99°
2026-05-04 21:51 34.20227 -122.09635 37077 ft 532 kts 99°
2026-05-04 21:52 34.19769 -122.00722 37076 ft 532 kts 99°
2026-05-04 21:52 34.19306 -121.91849 37076 ft 532 kts 99°
2026-05-04 21:53 34.18835 -121.82932 37053 ft 531 kts 100°
2026-05-04 21:53 34.18358 -121.74036 37063 ft 531 kts 101°
2026-05-04 21:54 34.17875 -121.65140 37078 ft 531 kts 101°
2026-05-04 21:54 34.17384 -121.56238 37071 ft 531 kts 101°
2026-05-04 21:55 34.16890 -121.47381 36964 ft 532 kts 101°
2026-05-04 21:55 34.16632 -121.42873 36192 ft 542 kts 101°
2026-05-04 21:55 34.16374 -121.38350 35535 ft 541 kts 102°
2026-05-04 21:55 34.16115 -121.33794 34739 ft 543 kts 102°
2026-05-04 21:56 34.15855 -121.29241 33906 ft 545 kts 102°
2026-05-04 21:56 34.15590 -121.24673 32963 ft 547 kts 102°
2026-05-04 21:56 34.15323 -121.20076 32071 ft 548 kts 102°
2026-05-04 21:56 34.15055 -121.15493 31306 ft 547 kts 102°
2026-05-04 21:57 34.14791 -121.10927 30802 ft 541 kts 102°
2026-05-04 21:57 34.14530 -121.06477 30281 ft 536 kts 102°
2026-05-04 21:57 34.14263 -121.02007 29682 ft 531 kts 102°
2026-05-04 21:57 34.14009 -120.97579 29095 ft 527 kts 100°
2026-05-04 21:58 34.14044 -120.93161 28565 ft 526 kts 92°
2026-05-04 21:58 34.14380 -120.88779 28077 ft 522 kts 89°
2026-05-04 21:58 34.14837 -120.84451 27554 ft 517 kts 88°
2026-05-04 21:58 34.15305 -120.80161 27043 ft 511 kts 88°
2026-05-04 21:59 34.15731 -120.75926 26543 ft 505 kts 88°
2026-05-04 21:59 34.16108 -120.71736 26041 ft 499 kts 89°
2026-05-04 21:59 34.16451 -120.67579 25543 ft 494 kts 89°
2026-05-04 21:59 34.16771 -120.63474 25055 ft 488 kts 89°
2026-05-04 22:00 34.17083 -120.59410 24558 ft 484 kts 88°
2026-05-04 22:00 34.17391 -120.55385 24074 ft 479 kts 88°
2026-05-04 22:00 34.17699 -120.51397 23561 ft 475 kts 88°
2026-05-04 22:00 34.18005 -120.47444 22990 ft 470 kts 87°
2026-05-04 22:01 34.18308 -120.43526 22454 ft 465 kts 87°
2026-05-04 22:01 34.18607 -120.39666 21969 ft 459 kts 87°
2026-05-04 22:01 34.18897 -120.35902 21504 ft 453 kts 87°
2026-05-04 22:01 34.19185 -120.32132 21027 ft 448 kts 87°
2026-05-04 22:02 34.19412 -120.28432 20880 ft 435 kts 89°
2026-05-04 22:02 34.19544 -120.24801 20732 ft 434 kts 90°
2026-05-04 22:02 34.19649 -120.21105 20618 ft 444 kts 90°
2026-05-04 22:02 34.19765 -120.17351 20479 ft 448 kts 90°
2026-05-04 22:03 34.19896 -120.13609 20322 ft 445 kts 90°
2026-05-04 22:03 34.20036 -120.09919 20157 ft 433 kts 90°
2026-05-04 22:03 34.20170 -120.06349 19998 ft 421 kts 90°
2026-05-04 22:03 34.20211 -120.02845 19700 ft 412 kts 93°
2026-05-04 22:04 34.20167 -119.99416 19419 ft 405 kts 94°
2026-05-04 22:04 34.20097 -119.96048 19141 ft 398 kts 94°
2026-05-04 22:04 34.20027 -119.92727 18869 ft 393 kts 94°
2026-05-04 22:04 34.19964 -119.89432 18598 ft 390 kts 93°
2026-05-04 22:05 34.19909 -119.86173 18324 ft 386 kts 93°
2026-05-04 22:05 34.19859 -119.82979 18027 ft 383 kts 93°
2026-05-04 22:05 34.19812 -119.79778 17735 ft 379 kts 93°
2026-05-04 22:05 34.19766 -119.76600 17456 ft 376 kts 93°
2026-05-04 22:06 34.19720 -119.73450 17191 ft 374 kts 93°
2026-05-04 22:06 34.19674 -119.70304 16940 ft 376 kts 93°
2026-05-04 22:06 34.19625 -119.67139 16674 ft 377 kts 93°
2026-05-04 22:06 34.19577 -119.63966 16405 ft 376 kts 93°
2026-05-04 22:07 34.19529 -119.60848 16139 ft 374 kts 93°
2026-05-04 22:07 34.19479 -119.57704 15876 ft 373 kts 93°
2026-05-04 22:07 34.19430 -119.54581 15616 ft 371 kts 92°
2026-05-04 22:07 34.19379 -119.51473 15349 ft 369 kts 93°
2026-05-04 22:08 34.19328 -119.48379 15098 ft 368 kts 93°
2026-05-04 22:08 34.19276 -119.45300 14843 ft 366 kts 93°
2026-05-04 22:08 34.19225 -119.42228 14594 ft 364 kts 93°
2026-05-04 22:08 34.19172 -119.39167 14326 ft 363 kts 93°
2026-05-04 22:09 34.19118 -119.36129 14086 ft 362 kts 93°
2026-05-04 22:09 34.19067 -119.33088 13774 ft 362 kts 92°
2026-05-04 22:09 34.19018 -119.30043 13420 ft 363 kts 92°
2026-05-04 22:09 34.18969 -119.27004 13055 ft 360 kts 92°
2026-05-04 22:10 34.18920 -119.24000 12730 ft 354 kts 92°
2026-05-04 22:10 34.18870 -119.21039 12428 ft 351 kts 93°
2026-05-04 22:10 34.18821 -119.18136 12142 ft 348 kts 92°
2026-05-04 22:10 34.18771 -119.15218 11853 ft 347 kts 92°
2026-05-04 22:11 34.18720 -119.12309 11617 ft 344 kts 92°
2026-05-04 22:11 34.18669 -119.09429 11310 ft 341 kts 92°
2026-05-04 22:11 34.18563 -119.06618 11016 ft 329 kts 100°
2026-05-04 22:11 34.17860 -119.04089 10929 ft 309 kts 118°
2026-05-04 22:12 34.16893 -119.01735 10853 ft 316 kts 118°
2026-05-04 22:12 34.15931 -118.99349 10746 ft 315 kts 118°
2026-05-04 22:12 34.14986 -118.96976 10652 ft 312 kts 118°
2026-05-04 22:12 34.14057 -118.94627 10593 ft 309 kts 117°
2026-05-04 22:13 34.13136 -118.92299 10514 ft 306 kts 116°
2026-05-04 22:13 34.12224 -118.89969 10422 ft 306 kts 116°
2026-05-04 22:13 34.11306 -118.87629 10356 ft 309 kts 116°
2026-05-04 22:13 34.10389 -118.85294 10279 ft 306 kts 117°
2026-05-04 22:14 34.09481 -118.82975 10210 ft 303 kts 117°
2026-05-04 22:14 34.08588 -118.80696 10121 ft 299 kts 118°
2026-05-04 22:14 34.07716 -118.78478 10048 ft 294 kts 118°
2026-05-04 22:14 34.06842 -118.76253 9986 ft 292 kts 118°
2026-05-04 22:15 34.05971 -118.74035 9789 ft 294 kts 117°
2026-05-04 22:15 34.05097 -118.71801 9549 ft 295 kts 118°
2026-05-04 22:15 34.04218 -118.69564 9302 ft 295 kts 117°
2026-05-04 22:15 34.03345 -118.67341 9035 ft 291 kts 117°
2026-05-04 22:16 34.02731 -118.65109 8798 ft 284 kts 99°
2026-05-04 22:16 34.02512 -118.62746 8622 ft 284 kts 95°
2026-05-04 22:16 34.02343 -118.60362 8421 ft 288 kts 96°
2026-05-04 22:16 34.02146 -118.57939 8204 ft 292 kts 97°
2026-05-04 22:17 34.01932 -118.55529 7981 ft 293 kts 97°
2026-05-04 22:17 34.01710 -118.53091 7726 ft 292 kts 97°
2026-05-04 22:17 34.01485 -118.50674 7484 ft 288 kts 97°
2026-05-04 22:17 34.01264 -118.48322 7236 ft 285 kts 97°
2026-05-04 22:18 34.01058 -118.46018 7133 ft 278 kts 94°
2026-05-04 22:18 34.01221 -118.43750 6999 ft 274 kts 78°
2026-05-04 22:18 34.01496 -118.42275 6971 ft 271 kts 76°
2026-05-04 22:18 34.02057 -118.39382 6788 ft 265 kts 76°
2026-05-04 22:19 34.02446 -118.37261 6548 ft 255 kts 77°
2026-05-04 22:19 34.02809 -118.35185 6374 ft 255 kts 81°
2026-05-04 22:19 34.02980 -118.33764 6199 ft 256 kts 84°
2026-05-04 22:19 34.03248 -118.30980 6100 ft 248 kts 84°
2026-05-04 22:20 34.03451 -118.28923 5860 ft 246 kts 85°
2026-05-04 22:20 34.03658 -118.26856 5448 ft 252 kts 85°
2026-05-04 22:20 34.03877 -118.24781 5249 ft 247 kts 84°
2026-05-04 22:20 34.04086 -118.22741 4906 ft 250 kts 84°
2026-05-04 22:21 34.04229 -118.21360 4720 ft 248 kts 84°
2026-05-04 22:21 34.04420 -118.19321 4491 ft 246 kts 84°
2026-05-04 22:21 34.04660 -118.16591 4047 ft 247 kts 84°
2026-05-04 22:21 34.04840 -118.14571 3979 ft 237 kts 84°
2026-05-04 22:22 34.04961 -118.13245 3971 ft 237 kts 84°
2026-05-04 22:22 34.05142 -118.11264 3997 ft 239 kts 84°
2026-05-04 22:22 34.05326 -118.09257 3995 ft 240 kts 84°
2026-05-04 22:22 34.05505 -118.07281 3986 ft 240 kts 84°
2026-05-04 22:23 34.05686 -118.05266 3993 ft 242 kts 85°
2026-05-04 22:23 34.05875 -118.03245 3989 ft 242 kts 84°
2026-05-04 22:23 34.06013 -118.01238 3968 ft 238 kts 96°
2026-05-04 22:23 34.05519 -117.99387 3990 ft 233 kts 131°
2026-05-04 22:24 34.04314 -117.98175 4006 ft 225 kts 162°
2026-05-04 22:24 34.02808 -117.97922 3990 ft 216 kts 196°
2026-05-04 22:24 34.01511 -117.98688 3988 ft 206 kts 225°
2026-05-04 22:24 34.00510 -117.99916 3977 ft 206 kts 231°
2026-05-04 22:25 33.99555 -118.01196 4000 ft 206 kts 230°
2026-05-04 22:25 33.98611 -118.02504 3996 ft 206 kts 231°
2026-05-04 22:25 33.97703 -118.03806 3952 ft 204 kts 237°
2026-05-04 22:25 33.97201 -118.05396 3726 ft 204 kts 259°
2026-05-04 22:26 33.96968 -118.07106 3491 ft 208 kts 260°
2026-05-04 22:26 33.96756 -118.08815 3242 ft 206 kts 261°
2026-05-04 22:26 33.96572 -118.10499 3074 ft 197 kts 261°
2026-05-04 22:26 33.96404 -118.12099 2980 ft 191 kts 262°
2026-05-04 22:27 33.96240 -118.13712 3004 ft 200 kts 262°
2026-05-04 22:27 33.96068 -118.15399 2990 ft 205 kts 261°
2026-05-04 22:27 33.95897 -118.17070 2996 ft 203 kts 262°
2026-05-04 22:27 33.95725 -118.18762 3000 ft 203 kts 261°
2026-05-04 22:28 33.95557 -118.20414 3011 ft 193 kts 262°
2026-05-04 22:28 33.95396 -118.21994 2830 ft 187 kts 261°
2026-05-04 22:28 33.95240 -118.23528 2556 ft 182 kts 261°
2026-05-04 22:28 33.95088 -118.25013 2310 ft 175 kts 260°
2026-05-04 22:29 33.94944 -118.26427 2089 ft 167 kts 261°
2026-05-04 22:29 33.94806 -118.27780 1868 ft 156 kts 261°
2026-05-04 22:29 33.94681 -118.29005 1671 ft 138 kts 261°
2026-05-04 22:29 33.94568 -118.30110 1514 ft 134 kts 260°
2026-05-04 22:30 33.94455 -118.31214 1319 ft 134 kts 260°
2026-05-04 22:30 33.94343 -118.32311 1124 ft 133 kts 260°
2026-05-04 22:30 33.94225 -118.33478 961 ft 143 kts 261°
2026-05-04 22:30 33.94104 -118.34650 731 ft 137 kts 261°
2026-05-04 22:31 33.93993 -118.35740 563 ft 130 kts 263°
2026-05-04 22:31 33.93880 -118.36845 412 ft 137 kts 263°
2026-05-04 22:31 33.93768 -118.37964 232 ft 127 kts 263°
2026-05-04 22:31 33.93667 -118.38956 129 ft 107 kts 263°
2026-05-04 22:32 33.93593 -118.39671 127 ft 60 kts 263°
2026-05-04 22:32 33.93563 -118.39985 129 ft 28 kts 265°
2026-05-04 22:32 33.93580 -118.40217 126 ft 28 kts 285°
2026-05-04 22:32 33.93624 -118.40430 129 ft 25 kts 268°
2026-05-04 22:33 33.93612 -118.40612 127 ft 12 kts 261°
2026-05-04 22:33 33.93599 -118.40709 128 ft 12 kts 261°
2026-05-04 22:33 33.93586 -118.40832 130 ft 20 kts 263°
2026-05-04 22:33 33.93568 -118.41007 129 ft 21 kts 263°
2026-05-04 22:34 33.93557 -118.41164 131 ft 8 kts 279°
2026-05-04 22:34 33.93558 -118.41169 131 ft 0 kts 283°
2026-05-04 22:36 33.93560 -118.41176 131 ft 7 kts 283°
2026-05-04 22:37 33.93618 -118.41257 128 ft 15 kts 342°
2026-05-04 22:37 33.93708 -118.41268 127 ft 2 kts 359°
2026-05-04 22:37 33.93739 -118.41265 127 ft 7 kts 11°
2026-05-04 22:37 33.93809 -118.41255 128 ft 13 kts 358°
2026-05-04 22:38 33.93898 -118.41268 126 ft 13 kts 352°
2026-05-04 22:38 33.93985 -118.41282 128 ft 13 kts 354°
2026-05-04 22:38 33.94092 -118.41296 128 ft 19 kts 353°
2026-05-04 22:38 33.94222 -118.41312 128 ft 14 kts
2026-05-04 22:39 33.94255 -118.41237 126 ft 11 kts 109°
2026-05-04 22:39 33.94190 -118.41208 128 ft 11 kts 177°
2026-05-04 22:39 33.94115 -118.41199 128 ft 11 kts 173°
2026-05-04 22:39 33.94041 -118.41188 126 ft 11 kts 173°
2026-05-04 22:40 33.93965 -118.41178 128 ft 11 kts 173°
2026-05-04 22:40 33.93930 -118.41142 127 ft 6 kts 96°
2026-05-04 22:40 33.93937 -118.41103 126 ft 5 kts 79°
2026-05-04 22:40 33.93942 -118.41068 126 ft 0 kts 82°
2026-05-04 22:41 33.93942 -118.41065 125 ft 0 kts 82°